[ hide orbit diagram ]
For accurate long-term ephemerides, please instead use our Horizons system.This orbit viewer was implemented using two-body methods, and hence should not be used for determining accurate long-term trajectories (over several years or decades) or planetary encounter circumstances.
Orbital Elements at Epoch 2459000.5 (2020-May-31.0) TDB
Reference: JPL 31 (heliocentric ecliptic J2000)
Element | Value | Uncertainty (1-sigma) | Units |
e | .1674171668606772 | 2.8742e-08 | |
a | 2.399758652032749 | 8.3955e-09 | au |
q | 1.997997857360029 | 6.8611e-08 | au |
i | 1.915276999300212 | 3.2513e-06 | deg |
node | 283.5220051244958 | 0.00011969 | deg |
peri | 25.07091843686543 | 0.00012031 | deg |
M | 137.4326934572778 | 1.3268e-05 | deg |
tp | 2458482.133014988677 (2018-Dec-29.63301499) | 4.9034e-05 | TDB |
period | 1357.843682675741 3.72 | 7.1256e-06 1.951e-08 | d yr |
n | .2651262472942326 | 1.3913e-09 | deg/d |
Q | 2.801519446705469 | 9.801e-09 | au |
|
| | Orbit Determination Parameters
Additional Information
|
[ show covariance matrix ]
Physical Parameter Table
Parameter |
Symbol |
Value |
Units |
Sigma |
Reference |
Notes |
absolute magnitude |
H |
14.7 |
|
n/a |
MPO452631 |
|
diameter |
diameter |
7.741 |
km |
0.112 |
urn:nasa:pds:neowise_diameters_albedos::2.0[mainbelt] (http://adsabs.harvard.edu/abs/2011ApJ...741...68M) |
|
geometric albedo |
albedo |
0.058 |
|
0.004 |
urn:nasa:pds:neowise_diameters_albedos::2.0[mainbelt] (http://adsabs.harvard.edu/abs/2011ApJ...741...68M) |
|
|
32847 (1992 JO3) Discovered 1992-May-01 by Debehogne, H. at La Silla |
Reference: 20020128/Numbers.arc | Last Updated: 2004-04-19 |
|
[ hide close-approach data ]
Close-Approach Data ...sorted by Date/Time (TDB)
|
Date/Time (TDB) |
Time Uncertainty (days_HH:MM) |
Body |
Nominal Distance (au) |
Minimum Distance (au) |
Maximum Distance (au) |
V-relative (km/s) |
V-infinity (km/s) |
JD (TDB) |
Time Uncertainty (minutes) |
Semi-major axis (km) |
Semi-minor axis (km) |
range-LOV angle (deg) |
N-sigma |
BP |
Orbit Ref. |
Reference |
Modified |
2124-Oct-31 03:27 |
00:05 |
Europ |
0.00583214378083787 |
0.00582496233412849 |
0.0058393342246139 |
3.67522704757033 |
3.67522655171002 |
2497138.643794512 |
4.83573271776182 |
508.902513268054 |
22.184059070115 |
45.3397389408259 |
27971.5692153701 |
T |
31 |
CATAB v2.0f-lin.ifort 2020-Dec-17 21:01:46 |
2020-Dec-17 21:01 |
|
Alternate Designations
1992 JO3 = 1974 RU1 = 2000 QF4 |
|
|